ONEWEB-0695

operational
NORAD ID: 61602 Int'l Des: 2024-188 Owner: ONEWEBE Country: UK Constellation: oneweb
LEOCIRCULARPOLARONEWEB_TYPE

Über ONEWEB-0695

Beschreibung wird geladen...

Live-Position

3D-Globus wird geladen...

Nächste Überflüge

Höhenverlauf

Altitude vs Time

uPlot chart will show altitude changes over time

Zweizeiliger Elementsatz

1 61602U 24188J 25251.50479023 .00000575 00000-0 15856-2 0 9997
2 61602 87.8771 77.2100 0001704 107.6799 252.4515 13.11416615 47546
Epoch: 8. Sept. 2025 • Age: 10 hours

Aktueller Status

Höhe 1228.8 km
Geschwindigkeit 7.25 km/s
Subsatellitenpunkt 71.65°N, 64.77°W
Startdatum 20. Okt. 2024
Alter 0.8 years
Typ internet

Technische Details

Klassifizierung Payload
Masse 148.00 kg
Trockenmasse 140.00 kg
Gesamtmasse 148.00 kg
Länge 1.30 m
Durchmesser 1.00 m
Spannweite 5.00 m
Form Trapezoid+2 pan
Hersteller ONEWUS
Bus-Typ ARROW
Phasenstatus In Orbit
Besitzer/Staat ONEWEBE/UK

Große Konstellationen

Loading constellations...